DW8195 Weather Reports


Display with metric or nautical units.
time (UTC)temp
F
wind
direction
speed
MPH
gust
MPH
rain 1hr
in
rain 24hr
in
rain mn
in
humidity
%
barometer
mb
20260506221521 55 139 2.0 6.0 0.00 0.01 0.01 66 1007.6
20260506220021 55 135 3.0 6.0 0.00 0.01 0.01 66 1007.6
20260506214519 55 139 4.0 8.0 0.00 0.01 0.01 66 1007.4
20260506213019 56 203 3.0 7.0 0.00 0.01 0.01 66 1007.1
20260506211517 56 139 3.0 8.0 0.00 0.01 0.01 67 1006.9
20260506210017 54 203 5.0 9.0 0.00 0.01 0.01 67 1006.8
20260506204515 54 203 5.0 9.0 0.00 0.01 0.01 66 1007.0
20260506203014 57 203 3.0 8.0 0.00 0.01 0.01 64 1007.1
20260506201512 66 203 4.0 8.0 0.00 0.01 0.01 63 1007.1
20260506200011 65 203 2.0 8.0 0.00 0.01 0.01 64 1007.3
20260506194603 63 203 5.0 11.0 0.00 0.01 0.01 75 1007.5
20260506193033 59 203 2.0 13.0 0.00 0.01 0.01 76 1007.7
20260506191528 56 131 1.0 7.0 0.00 0.01 0.01 68 1007.7
20260506190026 56 98 2.0 5.0 0.00 0.01 0.01 69 1007.7
20260506184526 56 123 3.0 8.0 0.00 0.01 0.01 69 1007.7
20260506183023 55 124 2.0 9.0 0.00 0.01 0.01 69 1007.8
20260506181521 54 136 3.0 9.0 0.01 0.01 0.01 69 1008.0
20260506180052 54 203 6.0 11.0 0.01 0.01 0.01 69 1008.1
20260506174557 54 203 5.0 10.0 0.01 0.01 0.01 68 1008.3
20260506173043 55 203 4.0 9.0 0.01 0.01 0.01 68 1008.5
20260506171541 55 131 4.0 7.0 0.00 0.00 0.00 67 1008.6
20260506170043 55 137 4.0 13.0 0.00 0.00 0.00 67 1008.9
20260506164537 55 203 2.0 9.0 0.00 0.00 0.00 66 1009.6
20260506163009 55 203 2.0 7.0 0.00 0.00 0.00 65 1009.7
20260506161506 56 203 3.0 11.0 0.00 0.00 0.00 64 1009.7
20260506160035 57 139 5.0 10.0 0.00 0.00 0.00 63 1009.6
20260506154536 58 203 3.0 8.0 0.00 0.00 0.00 63 1009.8
20260506153003 58 133 1.0 10.0 0.00 0.00 0.00 63 1009.7
20260506151502 58 203 3.0 10.0 0.00 0.00 0.00 63 1009.8
20260506150104 58 203 4.0 9.0 0.00 0.00 0.00 63 1009.8
20260506144612 57 123 3.0 12.0 0.00 0.00 0.00 63 1009.7
20260506143057 57 203 3.0 11.0 0.00 0.00 0.00 64 1009.7
20260506141552 55 203 5.0 13.0 0.00 0.00 0.00 65 1009.6
20260506140103 55 203 8.0 13.0 0.00 0.00 0.00 65 1009.6
20260506134546 55 203 7.0 12.0 0.00 0.00 0.00 65 1010.0
20260506133056 55 203 8.0 11.0 0.00 0.00 0.00 65 1010.0
20260506131546 54 203 5.0 10.0 0.00 0.00 0.00 64 1010.3
20260506130059 54 131 6.0 12.0 0.00 0.00 0.00 65 1010.1
20260506124535 53 203 6.0 9.0 0.00 0.00 0.00 65 1010.2
20260506123039 53 203 5.0 10.0 0.00 0.00 0.00 64 1010.2
20260506121532 54 134 5.0 10.0 0.00 0.00 0.00 63 1010.4
20260506120033 56 203 4.0 10.0 0.00 0.00 0.00 61 1010.3
20260506114530 66 203 5.0 13.0 0.00 0.00 0.00 58 1010.4
20260506113036 61 203 2.0 11.0 0.00 0.00 0.00 65 1010.6
20260506111532 54 203 1.0 9.0 0.00 0.00 0.00 67 1010.6
20260506110038 54 203 5.0 9.0 0.00 0.00 0.00 66 1010.5
20260506104528 54 203 1.0 8.0 0.00 0.00 0.00 67 1010.6
20260506103026 54 203 2.0 5.0 0.00 0.00 0.00 67 1010.4
20260506101532 53 139 3.0 7.0 0.00 0.00 0.00 67 1010.3
20260506100023 53 203 2.0 6.0 0.00 0.00 0.00 66 1010.2
20260506094525 54 203 4.0 7.0 0.00 0.00 0.00 66 1010.3
20260506093030 55 136 2.0 5.0 0.00 0.00 0.00 67 1010.2
20260506091520 54 203 2.0 6.0 0.00 0.00 0.00 66 1010.4
20260506090017 54 203 3.0 7.0 0.00 0.00 0.00 65 1010.4
20260506084517 55 122 3.0 8.0 0.00 0.00 0.00 65 1010.4
20260506083025 55 203 1.0 7.0 0.00 0.00 0.00 66 1010.6
20260506081517 55 203 2.0 7.0 0.00 0.00 0.00 66 1010.6
20260506073013 54 203 3.0 7.0 0.00 0.00 0.00 65 1010.6
20260506071512 54 203 4.0 9.0 0.00 0.00 0.00 65 1010.9
20260506061509 56 203 1.0 7.0 0.00 0.00 0.00 64 1010.8
20260506044501 56 203 2.0 7.0 0.00 0.00 0.00 64 1011.1
20260506043002 56 203 5.0 10.0 0.00 0.00 0.00 64 1011.1
20260506041502 56 123 5.0 8.0 0.00 0.00 0.00 63 1011.2
20260506040100 57 203 4.0 10.0 0.00 0.00 0.00 62 1011.2
20260506034530 59 134 4.0 10.0 0.00 0.00 0.00 59 1011.3
20260506033030 64 203 4.0 13.0 0.00 0.00 0.00 52 1011.2
20260506031541 68 203 2.0 11.0 0.00 0.00 0.00 52 1011.1
20260506030030 68 203 2.0 12.0 0.00 0.00 0.00 53 1011.0
20260506024532 68 203 2.0 15.0 0.00 0.00 0.00 52 1011.0
20260506023027 69 203 5.0 14.0 0.00 0.00 0.00 52 1011.0
20260506021523 69 203 5.0 20.0 0.00 0.00 0.00 51 1011.1
20260506020024 69 203 4.0 12.0 0.00 0.00 0.00 49 1011.0
20260506014523 69 203 4.0 15.0 0.00 0.00 0.00 49 1010.8
20260506013022 68 203 3.0 12.0 0.00 0.00 0.00 50 1010.7
20260506011518 62 203 2.0 9.0 0.00 0.00 0.00 57 1010.6
20260506010036 62 129 4.0 11.0 0.00 0.00 0.00 54 1010.4
20260506004512 63 137 3.0 7.0 0.00 0.00 0.00 55 1010.3
20260506003012 64 203 3.0 7.0 0.00 0.00 0.00 55 1010.3
20260506001509 61 133 2.0 8.0 0.00 0.00 0.00 60 1010.1
20260506000013 58 130 6.0 11.0 0.00 0.00 0.00 59 1010.0
20260505234509 63 203 5.0 8.0 0.00 0.00 0.00 54 1009.9
20260505233009 64 135 2.0 7.0 0.00 0.00 0.00 55 1009.6
20260505231510 62 203 3.0 7.0 0.00 0.00 0.00 57 1009.5
20260505230004 62 203 4.0 8.0 0.00 0.00 0.00 58 1009.2
20260505224504 61 139 4.0 10.0 0.00 0.00 0.00 58 1009.1
20260505223004 61 112 4.0 10.0 0.00 0.00 0.00 58 1008.9